Stations météo

réclame
Mon MeteoGroup
St-Hubert, Belgique (6476): Température de l'air & dewpoint: 20.10.2020 22:00:00 - 26.10.2020 22:00:00 (CET)St-Hubert, Belgique (6476): Vitesse du vent & gusts: 20.10.2020 22:00:00 - 26.10.2020 22:00:00 (CET)St-Hubert, Belgique (6476): Direction du vent: 20.10.2020 22:00:00 - 26.10.2020 22:00:00 (CET)St-Hubert, Belgique (6476): reduced air pressure: 20.10.2020 22:00:00 - 26.10.2020 22:00:00 (CET)St-Hubert, Belgique (6476): visibility: 20.10.2020 22:00:00 - 26.10.2020 22:00:00 (CET)
Date & Time tt [°C] td [°C] ff [km/h] ff [knt] fx [km/h] fx [knt] dd ppp [hPa] vv [km]
26.10.2020 22:00:00 5,6 4,5 14 8 - - SSW 1006,2 16
26.10.2020 21:00:00 5,4 4,2 14 8 32 18 S 1005,9 30
26.10.2020 20:00:00 5,7 4,3 14 8 32 18 SSW 1005,6 40
26.10.2020 19:00:00 6,4 4,9 18 10 - - SSW 1005,3 7
26.10.2020 18:00:00 6,4 4,9 14 8 32 18 SW 1004,6 24
26.10.2020 17:00:00 7,1 4,5 18 10 32 18 SSW 1004,2 35
26.10.2020 16:00:00 7,8 4,0 14 8 - - SSW 1004,1 40
26.10.2020 15:00:00 8,2 4,4 18 10 43 23 SSW 1003,7 35
26.10.2020 14:00:00 7,6 3,7 18 10 36 19 SSW 1003,5 40
26.10.2020 13:00:00 6,9 3,2 22 12 - - SW 1004,0 35
26.10.2020 12:00:00 6,3 3,7 18 10 43 23 SW 1004,2 40
26.10.2020 11:00:00 5,9 4,0 22 12 36 19 SW 1004,4 40
26.10.2020 10:00:00 5,5 3,7 14 8 - - SW 1004,5 45
26.10.2020 09:00:00 5,9 4,4 18 10 36 19 SW 1003,7 35
26.10.2020 08:00:00 5,9 4,7 14 8 32 18 SW 1003,3 28
26.10.2020 07:00:00 5,8 4,5 14 8 - - SSW 1003,3 30
26.10.2020 06:00:00 5,9 4,7 14 8 25 14 SW 1002,8 30
26.10.2020 05:00:00 6,5 5,4 14 8 25 14 SW 1002,9 22
26.10.2020 04:00:00 6,9 5,8 11 6 - - SSW 1002,7 8
26.10.2020 03:00:00 6,9 5,7 11 6 29 16 SSW 1002,8 40
26.10.2020 02:00:00 6,8 5,7 11 6 22 12 SSW 1002,3 40
26.10.2020 01:00:00 6,8 5,6 11 6 - - SSW 1002,5 45
26.10.2020 00:00:00 6,8 5,4 11 6 43 23 SW 1003,6 28
25.10.2020 23:00:00 7,9 6,7 18 10 32 18 SSW 1003,0 29
25.10.2020 22:00:00 7,7 6,7 11 6 - - SSW 1003,4 7
25.10.2020 21:00:00 7,8 6,6 14 8 36 19 SSW 1003,6 25
25.10.2020 20:00:00 7,9 6,7 18 10 36 19 SSW 1003,8 15
25.10.2020 19:00:00 8,0 6,8 18 10 - - SW 1004,0 25
25.10.2020 18:00:00 8,0 7,0 18 10 36 19 SSW 1004,0 7
25.10.2020 17:00:00 8,3 6,9 22 12 36 19 SSW 1003,6 15
25.10.2020 16:00:00 8,4 7,1 18 10 - - SSW 1003,3 35
25.10.2020 15:00:00 8,7 7,4 18 10 36 19 SSW 1003,3 45
25.10.2020 14:00:00 8,9 7,8 18 10 32 18 S 1003,9 40
25.10.2020 13:00:00 8,7 7,5 18 10 - - SW 1004,7 9
25.10.2020 12:00:00 8,9 7,8 22 12 36 19 SSW 1004,8 10
25.10.2020 11:00:00 8,8 7,7 18 10 36 19 SSW 1004,8 9
25.10.2020 10:00:00 8,9 7,7 18 10 - - S 1004,5 19
25.10.2020 09:00:00 8,9 7,5 18 10 32 18 S 1005,3 22
25.10.2020 08:00:00 9,1 7,5 18 10 32 18 SSW 1005,4 20
25.10.2020 07:00:00 9,1 7,4 18 10 - - S 1005,3 45
25.10.2020 06:00:00 8,9 7,6 18 10 43 23 S 1005,9 40
25.10.2020 05:00:00 9,1 7,8 22 12 40 21 S 1005,8 45
25.10.2020 04:00:00 9,1 8,0 22 12 - - S 1006,8 21
25.10.2020 03:00:00 9,3 8,3 22 12 40 21 S 1007,7 5
25.10.2020 02:00:00 9,8 8,6 18 10 43 23 S 1008,2 30
25.10.2020 01:00:00 - - - - - - - - -
25.10.2020 00:00:00 10,4 9,0 25 14 50 27 SSW 1009,1 16
24.10.2020 23:00:00 10,6 9,2 29 16 50 27 SSW 1009,5 45
24.10.2020 22:00:00 10,6 9,3 22 12 - - SSW 1010,3 20
24.10.2020 21:00:00 10,6 9,5 25 14 50 27 SSW 1010,5 40
24.10.2020 20:00:00 10,7 9,6 22 12 43 23 SSW 1011,0 -
24.10.2020 19:00:00 10,6 9,6 22 12 - - SSW 1011,7 -
24.10.2020 18:00:00 10,5 9,5 22 12 40 21 SSW 1012,3 5
24.10.2020 17:00:00 10,4 9,3 22 12 43 23 SSW 1012,6 -
24.10.2020 16:00:00 10,3 9,3 18 10 - - SSW 1013,0 5
24.10.2020 15:00:00 10,3 9,3 22 12 43 23 SSW 1013,7 2,5
24.10.2020 14:00:00 10,0 9,0 22 12 43 23 SSW 1014,1 5
24.10.2020 13:00:00 9,6 8,7 22 12 - - SSW 1014,7 -
24.10.2020 12:00:00 9,6 8,5 18 10 40 21 SSW 1015,1 -
24.10.2020 11:00:00 8,9 7,8 22 12 40 21 SSW 1015,4 17
24.10.2020 10:00:00 8,6 7,7 22 12 - - SSW 1015,5 2,4
24.10.2020 09:00:00 8,5 7,5 18 10 43 23 SSW 1015,2 4,9
24.10.2020 08:00:00 8,3 7,0 18 10 36 19 SSW 1015,1 23
24.10.2020 07:00:00 8,7 7,2 18 10 - - SSW 1015,1 30
24.10.2020 06:00:00 9,7 8,4 14 8 32 18 SW 1014,9 -
24.10.2020 05:00:00 9,8 8,6 14 8 25 14 SW 1014,6 -
24.10.2020 04:00:00 9,6 8,5 11 6 - - SW 1015,0 -
24.10.2020 03:00:00 9,6 8,4 11 6 32 18 SSW 1015,1 10
24.10.2020 02:00:00 10,1 8,9 18 10 40 21 SW 1014,7 -
24.10.2020 01:00:00 10,0 8,8 14 8 - - SW 1014,8 -
24.10.2020 00:00:00 10,3 9,2 14 8 29 16 SW 1015,0 4,6
23.10.2020 23:00:00 10,6 9,5 14 8 29 16 SW 1014,8 5
23.10.2020 22:00:00 10,1 9,2 11 6 - - SSW 1014,3 4,1
23.10.2020 21:00:00 10,2 9,3 11 6 18 10 SSW 1014,0 2,6
23.10.2020 20:00:00 10,7 9,9 7 4 18 10 SW 1013,4 0,2
23.10.2020 19:00:00 11,1 10,2 11 6 - - SW 1013,1 0,2
23.10.2020 18:00:00 11,3 10,2 11 6 22 12 SW 1012,5 -
23.10.2020 17:00:00 12,0 10,8 11 6 18 10 SW 1012,1 22
23.10.2020 16:00:00 12,0 10,7 11 6 - - SW 1011,7 40
23.10.2020 15:00:00 11,6 10,3 7 4 18 10 SSW 1011,5 40
23.10.2020 14:00:00 11,5 10,0 7 4 25 14 SW 1011,7 45
23.10.2020 13:00:00 11,7 10,7 11 6 - - SSW 1011,8 3,9
23.10.2020 12:00:00 12,2 10,8 14 8 25 14 SSW 1011,8 26
23.10.2020 11:00:00 11,9 10,6 14 8 25 14 SSW 1012,0 28
23.10.2020 10:00:00 11,6 10,4 11 6 - - SSW 1012,0 19
23.10.2020 09:00:00 11,3 10,2 7 4 18 10 S 1012,1 11
23.10.2020 08:00:00 11,3 10,2 7 4 18 10 SSW 1012,0 24
23.10.2020 07:00:00 11,4 10,4 11 6 - - SSW 1012,0 35
23.10.2020 06:00:00 11,5 10,6 11 6 22 12 SW 1011,9 15
23.10.2020 05:00:00 11,7 10,8 11 6 18 10 SSW 1012,2 14
23.10.2020 04:00:00 11,9 10,8 11 6 - - SSW 1012,6 15
23.10.2020 03:00:00 12,1 11,0 7 4 25 14 SSW 1012,9 30
23.10.2020 02:00:00 12,2 11,0 11 6 25 14 SW 1013,4 12
23.10.2020 01:00:00 12,3 11,1 11 6 - - SW 1013,7 13
23.10.2020 00:00:00 12,4 11,2 14 8 29 16 SSW 1013,6 10
22.10.2020 23:00:00 12,7 11,5 14 8 25 14 SSW 1013,8 10
22.10.2020 22:00:00 12,8 11,8 14 8 - - S 1013,6 9
22.10.2020 21:00:00 12,5 11,2 14 8 29 16 SSW 1013,7 24
22.10.2020 20:00:00 13,0 11,5 18 10 25 14 SSW 1013,3 27
22.10.2020 19:00:00 13,3 12,0 14 8 - - SSW 1013,4 22
22.10.2020 18:00:00 12,0 10,7 11 6 29 16 SSW 1013,5 14
22.10.2020 17:00:00 14,1 12,2 11 6 25 14 SSW 1012,5 14
22.10.2020 16:00:00 15,7 11,7 14 8 - - SSW 1012,2 30
22.10.2020 15:00:00 14,9 11,7 14 8 32 18 SSW 1012,4 30
22.10.2020 14:00:00 15,2 11,7 14 8 29 16 SSW 1012,5 25
22.10.2020 13:00:00 14,8 11,5 14 8 - - SSW 1012,8 24
22.10.2020 12:00:00 14,2 11,6 14 8 32 18 SSW 1013,2 30
22.10.2020 11:00:00 13,5 11,0 18 10 32 18 SSW 1013,6 30
22.10.2020 10:00:00 12,2 10,8 18 10 - - SSW 1014,2 30
22.10.2020 09:00:00 11,9 10,7 14 8 32 18 SSW 1013,7 24
22.10.2020 08:00:00 11,4 10,2 18 10 40 21 SSW 1013,1 45
22.10.2020 07:00:00 11,4 10,1 14 8 - - SSW 1012,3 45
22.10.2020 06:00:00 11,9 10,8 14 8 36 19 SSW 1012,1 30
22.10.2020 05:00:00 12,1 11,0 18 10 36 19 SSW 1012,1 21
22.10.2020 04:00:00 12,2 10,9 14 8 - - SSW 1012,0 28
22.10.2020 03:00:00 12,4 10,9 14 8 29 16 SSW 1011,9 27
22.10.2020 02:00:00 12,3 10,9 14 8 32 18 SSW 1011,7 27
22.10.2020 01:00:00 12,5 11,0 18 10 - - SSW 1011,1 27
22.10.2020 00:00:00 13,2 11,3 18 10 36 19 S 1010,6 25
21.10.2020 23:00:00 13,2 11,0 18 10 36 19 SSW 1010,1 30
21.10.2020 22:00:00 13,7 10,5 22 12 - - SSW 1009,5 40
21.10.2020 21:00:00 14,3 10,7 22 12 47 25 SW 1008,5 35
21.10.2020 20:00:00 14,6 11,3 25 14 54 29 SSW 1007,6 30
21.10.2020 19:00:00 14,9 11,3 25 14 - - SSW 1006,7 30
21.10.2020 18:00:00 15,1 10,8 25 14 54 29 SW 1006,0 35
21.10.2020 17:00:00 15,8 11,1 29 16 61 33 SW 1005,1 30
21.10.2020 16:00:00 16,5 10,6 29 16 - - SSW 1004,1 30
21.10.2020 15:00:00 16,2 10,1 29 16 58 31 SSW 1003,4 30
21.10.2020 14:00:00 17,0 9,5 29 16 58 31 SSW 1002,9 30
21.10.2020 13:00:00 16,4 9,6 29 16 - - SSW 1003,0 28
21.10.2020 12:00:00 13,2 8,8 25 14 47 25 S 1003,9 35
21.10.2020 11:00:00 11,6 8,4 22 12 40 21 S 1004,5 29
21.10.2020 10:00:00 10,4 7,5 18 10 - - S 1005,5 29
21.10.2020 09:00:00 9,9 7,0 14 8 32 18 S 1006,0 40
21.10.2020 08:00:00 9,6 6,9 18 10 36 19 S 1005,9 45
21.10.2020 07:00:00 8,9 7,4 18 10 - - SSE 1005,4 45
21.10.2020 06:00:00 8,9 7,4 18 10 40 21 S 1005,8 15
21.10.2020 05:00:00 9,2 7,4 18 10 36 19 S 1006,0 30
21.10.2020 04:00:00 9,0 7,4 18 10 - - S 1006,7 21
21.10.2020 03:00:00 9,2 7,4 14 8 36 19 S 1007,2 21
21.10.2020 02:00:00 9,4 7,8 18 10 29 16 S 1008,0 20
21.10.2020 01:00:00 9,6 8,2 14 8 - - S 1008,3 23
21.10.2020 00:00:00 10,1 9,0 14 8 29 16 S 1008,7 12
20.10.2020 23:00:00 10,4 9,2 11 6 25 14 S 1009,1 11
20.10.2020 22:00:00 10,5 9,3 11 6 - - S 1009,5 9

tt = Température de l'air
td = dewpoint
ff = Vitesse du vent
fx = gusts
dd = Direction du vent
ppp = reduced air pressure
vv = visibility

stations d'obs. à proximité